Location: Larrial
(48.2758°N, 4.5331°W)
Time: 01:34:58
(UTC+00:00)

XW-2F - Pass Details

Date: 02 December 2021
Orbit: 495 x 515 km, 97.5° (Epoch: 16 January)

Event Time Altitude Azimuth Distance (km) Brightness Sun altitude
Rises 18:22:40 0° 195° (SSW) 2,597 ? -18.7°
Reaches altitude 10° 18:25:01 10° 210° (SSW) 1,722 ? -19.1°
Maximum altitude 18:28:06 24° 266° (W) 1,084 ? -19.6°
Drops below altitude 10° 18:31:13 10° 322° (NW) 1,745 ? -20.1°
Sets 18:33:37 0° 336° (NNW) 2,642 ? -20.5°
